GFSWCAN_prec_cthk_198.txt.gz
RH
69 73 79 88 94 96 96 95 96 96 93 91 88 85 80 76 76 72 76 77 70 74 78 71 71 71 69 64 64 59 56 54 50 54 55 55 55 50 50 42 43 49 63 68 74 85 78 69 74 80 72 64 60 63
66 66 66 69 73 80 85 88 89 88 87 85 83 82 77 71 68 64 57 59 59 56 64 60 56 52 45 42 42 49 49 50 53 56 58 56 59 63 57 64 56 62 62 69 80 93 91 88 88 79 80 66 62 47
56 62 64 63 61 61 60 61 63 63 62 65 68 63 60 55 44 35 36 39 44 48 54 54 51 48 46 43 41 43 46 46 53 52 58 61 62 60 61 53 47 44 53 68 71 57 70 75 76 73 76 65 53 47
44 39 39 41 40 39 40 42 44 48 50 48 45 40 37 39 43 40 34 38 37 38 50 53 46 38 34 37 40 38 40 44 46 51 58 62 61 61 64 64 67 62 62 51 56 50 57 58 66 71 69 67 61 51
44 43 45 44 45 43 42 41 42 43 43 44 48 48 47 43 43 39 35 33 31 29 40 42 39 37 34 34 34 35 39 41 43 51 54 57 62 67 65 63 50 46 47 61 56 48 61 60 63 64 71 67 65 53
40 40 41 41 41 43 43 42 43 43 42 42 41 39 37 34 34 32 31 31 29 27 31 41 39 39 37 38 42 42 44 52 55 56 71 71 64 60 62 57 39 43 46 50 53 47 45 42 43 52 54 59 59 54
39 38 40 40 40 39 39 39 39 38 37 34 33 34 34 32 30 31 35 32 27 22 25 35 40 39 36 40 40 41 46 48 53 59 56 50 51 68 73 58 52 58 56 52 55 56 56 63 66 65 63 58 61 65
38 30 29 31 34 35 35 35 36 38 38 36 36 34 33 32 31 30 28 26 26 30 38 48 52 54 56 52 46 44 47 51 54 52 58 65 72 80 82 72 69 73 72 78 83 86 84 83 86 88 87 86 86 88
45 36 31 33 32 31 29 28 26 24 23 23 23 24 29 40 43 44 41 40 41 50 57 59 60 72 70 69 68 68 70 77 73 75 76 79 87 90 78 79 81 85 87 89 89 88 84 84 85 88 91 92 88 86
53 49 44 40 37 34 33 31 30 31 34 40 46 50 53 54 52 56 58 57 58 62 65 69 72 71 68 65 70 75 78 83 85 77 81 88 80 75 77 79 81 82 85 89 88 88 87 84 81 82 86 89 87 81
55 56 54 53 45 42 39 39 44 50 59 60 62 64 60 59 63 67 72 71 72 74 73 74 75 79 78 83 85 85 82 83 86 78 85 85 84 78 86 83 82 75 76 79 82 86 91 92 88 81 83 81 75 69
53 58 57 64 63 50 49 52 58 66 64 64 66 67 67 67 69 73 78 77 79 80 81 87 95 96 91 92 90 87 86 83 81 82 89 82 73 90 87 85 85 76 73 72 73 77 81 85 81 77 75 71 70 72
52 50 52 66 70 66 62 58 56 60 64 68 69 69 69 71 72 77 84 84 86 80 81 86 93 94 95 96 92 92 84 82 74 81 80 71 78 84 93 90 82 75 70 68 68 74 75 80 82 76 72 75 80 79
38 41 44 65 71 70 68 65 60 59 62 72 72 72 71 75 76 84 89 81 75 73 74 78 86 91 94 93 95 97 85 79 80 81 71 79 91 98 94 87 82 76 72 64 64 66 72 81 83 79 76 78 80 80
41 44 43 51 60 68 70 66 62 57 65 76 78 75 71 67 75 81 83 78 74 73 78 85 88 91 93 93 91 94 93 87 81 80 89 95 93 98 96 88 83 76 71 62 62 65 71 82 84 82 75 78 83 81
40 43 47 53 61 66 71 71 67 62 66 73 79 78 77 80 79 76 74 70 76 81 86 86 86 87 89 90 90 91 93 90 96 95 94 90 91 93 88 83 77 72 70 64 63 65 71 80 83 83 78 78 85 86
59 58 59 59 62 58 74 74 72 68 75 79 81 76 77 79 77 75 74 77 82 86 94 93 92 88 91 95 92 91 98 97 97 96 95 91 86 79 77 78 77 74 73 68 65 68 74 80 83 85 81 78 83 89
85 71 61 59 65 66 64 66 74 80 78 79 81 75 74 74 75 77 77 82 86 91 94 95 90 92 91 84 89 93 92 92 92 89 86 87 84 81 79 78 77 77 75 73 73 78 77 81 83 84 85 80 83 90
83 92 85 77 78 80 80 78 80 77 70 75 73 75 75 75 74 76 79 84 88 93 95 96 95 86 84 85 87 91 90 89 92 93 89 86 84 84 85 84 83 83 82 80 82 82 82 84 82 84 88 86 84 85
61 75 92 96 98 95 92 86 76 75 69 68 70 73 74 71 75 78 83 85 86 90 92 90 86 87 89 89 87 86 86 91 93 90 86 84 84 85 86 88 89 89 90 88 88 87 88 88 86 85 86 90 89 86
51 56 63 86 99 99 97 97 90 82 74 69 68 73 74 72 74 78 85 91 89 85 82 80 80 85 90 91 90 91 91 89 85 81 80 81 82 85 88 86 88 91 93 93 92 93 95 94 91 89 88 90 92 92
53 62 68 72 78 95 98 92 89 89 88 77 74 78 79 82 84 84 89 95 84 74 77 81 83 87 93 96 95 92 85 79 76 74 74 76 77 77 79 82 86 92 97 97 97 97 97 97 96 93 92 92 94 96
42 50 61 70 77 80 81 94 98 96 95 84 83 86 84 83 80 84 94 87 79 78 82 86 89 93 96 97 94 85 77 74 74 73 72 72 73 74 75 78 81 86 95 97 98 97 97 96 96 96 95 96 95 96
73 70 74 78 76 76 79 90 94 93 88 86 85 85 82 83 91 96 93 90 87 91 93 94 94 96 97 94 89 83 78 74 67 70 67 66 63 65 65 66 71 79 85 93 96 97 97 97 96 93 94 96 98 98
81 94 91 89 91 95 90 85 87 87 94 97 98 95 91 94 97 98 98 94 90 92 95 98 99 97 95 91 85 81 76 71 66 59 59 56 53 54 54 53 57 66 73 81 88 95 97 97 98 97 91 87 89 95
71 77 88 92 95 97 98 97 93 96 97 94 98 97 96 96 98 98 98 98 96 91 93 98 98 98 98 95 92 89 82 73 68 62 52 48 48 48 48 48 47 51 59 66 73 83 92 96 97 98 97 89 80 78
67 72 72 75 85 93 93 90 89 96 98 98 97 97 94 96 97 98 97 95 94 96 96 98 98 98 98 96 91 86 82 78 71 57 51 50 51 48 49 49 44 43 46 52 60 69 81 90 95 98 98 97 90 82
63 65 67 66 67 71 82 89 92 96 97 98 98 98 98 98 98 98 96 97 98 98 98 98 98 98 98 95 90 84 75 65 62 64 58 55 57 58 57 59 57 50 45 45 49 55 67 79 90 95 98 98 97 93
47 50 47 54 55 57 72 81 87 89 90 92 94 98 98 98 99 99 98 98 98 98 98 98 95 91 88 85 85 83 79 75 71 68 62 55 54 59 61 62 63 61 57 53 48 43 49 62 75 89 96 97 98 98
41 46 55 60 70 74 72 69 69 72 82 87 88 92 94 97 99 99 99 98 98 98 96 93 92 90 88 86 86 84 81 77 72 71 69 64 60 57 57 57 56 55 56 56 55 52 51 53 60 71 84 96 99 98
48 54 54 64 68 70 73 71 65 61 62 64 71 84 88 91 91 93 96 96 95 93 91 90 89 90 88 86 88 88 85 83 80 78 75 72 70 67 66 64 61 59 56 56 59 59 56 57 59 64 71 81 91 98
42 48 55 61 63 69 68 66 65 63 64 72 79 82 81 81 82 83 87 87 86 85 86 86 86 85 83 84 83 86 86 86 85 85 82 78 74 70 68 66 65 66 64 62 63 62 64 63 62 64 71 75 80 89
48 57 59 58 57 56 51 51 56 60 67 75 80 85 86 87 90 92 92 86 80 75 73 74 75 76 78 79 79 77 77 80 80 80 78 74 73 72 70 69 69 69 69 70 69 68 68 67 68 70 74 78 79 83

GFSWCAN_prec_cthk_201.txt.gz
RH
74 78 85 92 94 97 96 95 95 95 93 92 91 89 88 89 89 87 90 85 77 71 88 91 88 88 88 81 84 86 84 82 82 83 76 72 60 50 46 39 40 41 55 61 66 75 70 46 46 58 51 50 57 62
55 59 63 69 75 81 85 90 90 87 84 80 81 81 79 77 76 74 75 80 78 80 90 88 86 85 80 77 77 78 75 73 68 68 62 60 62 61 51 55 46 56 48 52 58 53 50 55 46 65 68 68 67 63
35 36 37 43 52 57 61 66 67 68 68 71 71 70 69 71 73 70 76 77 73 77 83 81 81 79 75 71 68 66 62 57 54 51 58 59 56 52 55 53 48 47 47 50 51 35 47 50 54 54 64 70 67 66
37 38 36 35 34 34 38 44 49 50 51 54 54 48 45 45 48 49 50 55 51 55 66 68 60 52 48 43 41 41 45 44 45 46 50 52 50 44 47 40 45 42 47 51 56 43 41 36 44 55 59 65 63 62
35 35 36 36 36 35 35 35 36 35 34 31 30 33 33 31 32 30 32 38 38 36 55 56 51 46 40 37 37 36 35 37 39 44 45 46 46 47 46 46 41 40 38 47 42 33 39 37 45 50 51 51 58 64
37 36 34 36 36 36 36 36 36 35 36 35 33 33 35 32 30 29 30 34 34 36 40 53 51 49 45 40 35 36 37 36 35 37 43 42 42 49 55 51 33 31 37 38 41 39 42 44 42 40 43 44 48 54
29 32 34 35 34 35 36 36 37 37 38 39 37 37 33 32 31 30 35 33 29 29 32 45 52 46 43 40 39 38 35 35 37 43 46 52 47 51 56 48 41 50 56 55 56 62 60 63 72 74 74 74 75 75
27 27 28 28 30 31 32 35 35 35 36 34 34 31 28 26 25 25 25 23 21 21 25 36 44 39 37 35 36 36 38 41 43 45 45 46 51 64 70 60 63 72 72 73 78 80 82 83 84 84 87 91 93 94
39 33 35 32 29 27 26 26 25 25 26 25 24 30 30 25 26 27 24 23 25 29 38 42 52 61 54 52 50 49 49 56 55 62 67 68 75 77 67 71 73 76 78 77 78 79 81 82 82 81 83 85 87 90
52 48 43 39 33 29 29 29 29 30 32 36 41 40 42 48 48 47 45 46 48 50 49 57 59 65 64 63 66 68 73 80 84 81 83 81 73 68 70 74 74 73 68 67 70 71 74 81 86 90 87 83 83 83
55 57 56 53 44 38 36 39 51 59 62 57 59 59 57 58 61 61 63 63 63 69 72 73 71 71 72 72 78 81 82 85 85 81 83 84 81 71 73 75 78 71 68 68 71 71 74 78 82 85 84 79 78 76
54 56 57 60 60 48 45 51 62 61 61 60 58 58 58 63 62 63 68 64 67 72 80 86 85 82 82 85 83 86 86 85 82 82 88 86 68 74 86 83 80 77 75 73 70 67 66 68 71 78 82 80 74 73
50 50 53 55 66 64 62 57 54 56 60 60 59 55 56 60 64 64 72 70 69 69 72 78 83 86 88 89 89 92 87 84 81 85 80 72 75 83 87 91 85 84 82 78 73 64 63 64 67 78 81 79 75 78
40 38 41 44 64 66 65 60 54 51 55 63 64 63 59 62 68 71 71 65 65 65 66 72 77 84 86 89 92 93 89 85 84 81 76 83 88 87 98 93 91 84 80 73 69 66 61 62 67 77 82 80 76 79
40 40 45 46 52 57 63 62 58 52 53 64 65 65 63 63 70 73 73 73 71 68 71 81 84 86 89 87 89 88 96 88 81 80 85 88 88 90 94 96 89 80 75 71 68 67 64 61 66 77 81 82 77 76
57 44 43 47 52 59 66 65 61 54 51 58 67 69 68 73 74 73 72 70 69 74 79 83 86 86 86 88 87 85 87 89 92 94 98 96 93 87 82 79 75 72 69 69 68 68 68 64 71 79 81 83 78 78
78 84 67 60 61 60 63 68 64 57 58 64 69 70 76 75 74 74 69 71 78 80 86 87 87 85 85 90 87 86 86 92 94 90 88 84 83 79 77 75 73 71 68 68 70 70 71 73 78 80 82 86 83 81
75 80 91 81 70 69 70 64 56 60 63 71 78 72 72 71 70 70 69 75 81 86 86 90 90 90 88 86 86 91 91 91 89 84 82 83 80 75 75 74 72 74 75 75 75 74 76 78 80 82 82 86 88 84
58 72 79 86 91 88 80 75 72 69 67 73 77 76 74 72 72 72 71 75 82 85 88 91 93 87 85 84 84 86 84 82 79 80 81 82 78 75 75 76 77 80 81 82 83 83 83 83 84 84 85 85 90 89
40 47 58 76 85 98 94 88 80 75 67 66 71 75 72 70 72 71 74 80 88 91 89 84 78 75 78 79 83 87 84 81 79 79 77 76 77 77 78 81 82 80 81 85 89 88 87 89 90 90 89 88 89 93
38 44 49 59 73 86 93 94 90 85 81 73 69 78 76 75 75 75 79 83 89 88 82 76 73 75 78 78 82 84 84 84 83 76 72 75 75 75 75 75 76 78 81 87 93 93 94 95 95 95 93 91 92 94
41 48 57 63 63 71 77 79 88 91 88 81 81 83 81 79 75 75 83 88 82 74 74 72 74 77 81 82 84 88 90 88 80 73 74 76 76 73 72 74 75 76 77 82 89 95 94 94 95 96 95 95 94 95
38 40 47 56 68 72 62 70 82 81 89 85 85 86 75 73 71 79 91 84 81 77 77 79 80 83 87 90 91 92 90 84 76 76 79 77 73 67 63 60 60 63 66 70 77 84 92 95 95 94 94 96 96 96
61 66 70 72 74 77 77 80 85 83 87 86 86 86 80 79 81 90 93 97 88 86 86 88 90 94 96 95 96 96 88 79 72 77 79 73 64 60 58 54 52 55 56 56 61 69 77 86 93 95 95 93 93 96
58 74 78 80 85 90 93 90 90 89 94 98 96 95 98 99 94 98 98 93 90 91 92 95 97 99 99 99 99 98 89 77 72 75 75 70 63 55 50 49 48 49 53 52 50 53 60 68 81 90 95 96 95 89
58 65 72 80 88 91 91 95 98 95 96 97 97 94 94 93 97 98 97 98 98 94 95 97 98 99 98 98 98 97 87 82 84 84 82 76 66 52 48 51 50 50 49 47 44 42 44 52 63 77 89 95 98 96
57 61 63 63 68 78 85 85 90 97 98 97 95 96 97 97 98 98 95 96 98 98 98 98 98 98 98 98 98 98 97 95 91 89 84 73 63 59 57 55 52 48 48 50 50 45 40 42 46 59 75 89 95 97
54 53 56 56 58 63 69 78 83 89 93 94 93 95 98 97 98 99 99 98 94 94 96 94 94 96 98 95 97 98 98 94 91 86 78 72 70 63 59 57 55 55 54 55 57 57 54 46 39 42 54 73 87 95
37 36 35 43 49 60 67 72 75 72 75 83 92 97 99 98 99 99 98 98 98 98 98 98 98 94 96 98 98 98 96 94 93 88 88 85 80 74 68 62 59 58 57 55 54 58 57 55 53 48 46 52 66 84
32 35 44 51 56 65 67 68 70 71 70 72 79 84 89 94 98 99 99 98 98 98 98 97 97 96 93 91 91 93 93 92 89 87 85 82 78 73 70 66 64 60 57 55 52 50 53 56 57 57 56 57 57 65
40 45 48 55 60 62 64 63 64 64 66 70 74 81 82 83 85 88 92 94 93 92 90 90 90 90 88 85 86 87 88 90 91 90 88 84 81 78 75 72 69 65 63 62 62 58 56 57 58 57 58 61 64 67
39 43 48 52 53 54 53 47 47 53 60 70 80 82 86 88 89 88 87 85 83 81 81 83 83 81 80 79 80 80 81 80 81 84 85 84 81 78 76 75 74 71 70 68 66 64 63 62 62 62 64 67 68 70
42 49 48 48 49 48 46 46 54 55 64 69 73 75 77 79 82 83 83 82 80 78 77 76 74 71 69 68 68 70 70 71 75 79 82 81 79 75 72 70 70 70 70 69 70 70 70 71 71 71 72 72 73 76

GFSWCAN_prec_cthk_204.txt.gz
RH
46 62 70 84 92 95 95 98 98 98 98 99 99 99 96 93 96 97 98 89 83 97 98 97 97 96 92 91 91 95 94 92 89 90 87 84 78 74 69 67 66 66 70 73 69 68 62 43 48 50 40 39 39 40
33 36 51 64 71 82 86 90 91 96 98 98 98 98 98 99 98 92 99 98 97 96 97 97 95 93 92 88 85 91 86 82 81 82 81 81 78 76 67 66 58 61 54 55 51 49 39 41 40 39 37 38 39 50
35 34 32 36 53 61 72 73 82 84 87 94 96 95 95 98 97 94 95 96 96 97 98 97 97 95 92 88 82 85 85 79 75 72 76 74 70 64 65 59 48 45 45 50 43 38 40 38 36 33 33 36 34 39
33 34 35 34 32 36 44 52 62 65 72 80 86 89 88 88 90 90 88 92 88 87 92 94 88 84 83 80 78 77 75 74 71 65 65 60 57 51 53 44 46 42 41 41 40 33 32 31 30 28 27 33 36 38
33 33 34 33 35 35 31 31 30 36 49 44 47 56 68 80 80 77 78 80 80 74 84 91 86 85 83 79 73 67 61 55 51 52 51 51 46 44 47 45 43 33 32 40 36 24 25 23 24 27 32 34 38 41
27 28 30 33 33 33 35 38 36 31 30 36 39 37 37 40 48 51 55 55 51 56 68 82 76 64 53 48 45 41 38 36 35 39 43 41 37 35 43 45 28 27 25 24 28 32 32 33 33 34 37 37 42 43
31 30 27 26 28 31 33 35 37 37 36 33 32 32 30 30 28 31 40 40 38 37 40 56 65 59 48 42 42 42 41 40 38 41 41 40 40 39 42 41 27 32 34 36 39 45 50 51 58 60 66 70 71 77
36 34 32 29 26 24 24 26 27 27 31 33 33 31 29 29 28 31 33 34 32 28 30 49 62 57 47 44 44 41 38 37 36 40 41 42 44 42 46 41 46 47 52 56 58 63 67 67 69 76 78 75 78 80
47 43 38 34 29 27 27 25 24 24 23 28 28 24 22 22 27 30 28 26 25 24 33 41 50 55 44 38 37 37 36 41 41 44 43 42 48 55 49 53 56 57 61 65 68 68 68 70 72 78 81 88 85 80
45 49 51 46 37 32 30 33 34 33 32 33 28 26 32 35 31 28 25 26 31 31 33 43 45 48 45 46 51 53 57 66 69 66 63 66 63 52 56 58 59 61 63 58 61 65 70 72 72 76 80 83 84 79
42 44 50 55 49 38 35 43 49 49 46 44 46 50 49 48 48 49 53 53 54 57 54 58 57 58 58 59 64 66 72 74 76 77 79 79 75 70 73 72 69 67 67 68 70 70 69 69 69 67 68 76 77 76
45 42 45 50 59 51 52 52 53 51 53 52 52 52 53 55 55 58 65 63 63 69 71 70 68 67 69 69 71 74 77 77 78 80 81 81 74 76 85 87 80 82 80 79 78 76 73 66 60 58 63 71 78 76
39 34 35 39 55 62 64 60 54 52 54 53 50 54 57 59 61 61 67 68 70 73 76 76 75 76 76 79 80 83 78 78 80 83 80 74 75 79 87 92 91 82 82 80 77 71 65 60 57 57 60 70 78 77
46 41 36 40 44 52 63 62 57 52 55 63 61 59 61 66 68 66 62 62 65 64 68 71 79 83 82 83 86 87 87 86 84 82 70 72 79 84 88 96 95 91 83 76 69 61 58 59 61 61 60 71 78 78
52 56 44 37 43 46 52 61 61 55 53 63 66 62 60 65 70 71 68 65 65 65 68 74 75 78 81 82 82 84 88 88 77 70 71 75 79 80 83 86 83 78 77 66 60 58 60 62 64 64 65 73 78 80
62 61 69 58 48 48 50 57 59 57 52 57 63 66 68 71 73 72 69 68 66 68 72 73 76 77 80 80 79 77 79 85 81 78 79 83 86 81 78 77 74 70 68 65 62 61 62 64 66 68 74 77 79 82
64 67 69 75 69 60 58 53 53 53 53 55 59 67 72 73 71 68 64 63 68 71 73 72 72 74 77 82 81 78 76 78 85 86 81 79 82 80 79 72 65 65 64 64 65 66 66 66 67 71 73 77 80 84
46 59 67 73 75 78 69 61 54 51 52 57 66 66 73 75 74 72 69 70 72 74 75 79 79 80 82 84 82 82 85 85 84 80 77 75 75 73 70 66 64 67 70 72 73 74 74 74 74 74 77 79 82 84
34 36 47 63 73 78 81 77 69 62 58 59 68 73 74 74 73 73 72 73 76 79 82 82 81 81 82 80 78 80 80 79 81 80 76 76 75 72 69 70 72 75 77 77 78 81 82 83 82 82 83 83 84 85
34 35 38 41 54 77 80 78 80 78 69 67 67 73 74 74 75 73 74 77 86 87 85 81 76 72 68 69 75 76 79 81 79 78 75 73 70 66 67 72 74 75 76 77 82 86 88 89 90 91 90 89 89 88
33 37 38 45 52 63 74 79 81 81 83 78 75 78 78 78 77 80 82 84 90 82 75 71 73 76 74 71 73 76 77 77 78 78 77 75 70 68 71 74 74 74 75 77 79 83 88 91 92 93 93 94 93 92
27 32 43 47 51 58 59 64 73 82 84 84 82 77 79 79 81 83 91 92 83 74 73 70 69 76 79 77 75 77 79 78 80 84 81 77 74 74 72 71 69 67 65 65 66 71 77 84 90 92 92 94 95 95
41 39 41 47 57 62 63 66 74 76 78 76 77 83 79 77 76 81 91 86 84 76 74 76 79 81 82 81 81 84 86 85 84 83 77 76 79 75 71 66 60 56 55 55 56 56 59 65 73 81 88 92 94 95
47 52 56 56 57 62 68 81 81 83 84 80 79 74 71 80 85 92 97 97 91 83 80 81 86 88 90 89 88 91 94 95 90 80 76 82 84 77 69 64 60 54 51 52 52 53 52 51 54 60 73 84 91 93
51 59 61 64 66 68 74 83 90 92 97 95 97 98 98 97 98 98 96 97 92 88 86 89 94 95 93 94 96 96 98 95 89 79 77 83 84 79 71 65 55 53 50 49 48 47 45 44 42 43 51 64 79 88
52 57 58 62 67 72 75 82 87 90 91 95 97 95 98 96 94 97 97 98 97 93 94 97 98 98 99 98 98 99 98 95 86 80 79 82 86 85 78 70 63 58 54 49 47 46 44 44 46 43 41 47 58 74
53 54 52 51 55 60 65 71 77 81 89 92 94 97 98 99 99 96 96 97 98 98 98 99 98 98 98 98 98 98 98 98 94 91 90 95 92 89 85 77 71 67 61 54 51 49 47 47 46 46 47 45 48 54
53 49 48 45 40 43 50 55 61 68 75 78 82 93 98 98 97 96 98 99 99 98 98 96 98 99 98 98 98 98 98 98 98 98 98 98 96 88 82 77 73 72 67 59 55 54 52 49 48 49 46 46 49 54
42 38 35 38 42 51 56 61 64 64 66 73 80 83 84 88 94 95 95 98 97 98 98 98 96 96 95 97 98 98 98 98 98 98 99 98 98 95 91 86 81 77 70 66 64 60 56 53 50 47 48 50 49 53
36 35 39 44 46 55 57 59 59 60 60 64 71 79 84 85 86 87 89 92 96 97 96 94 94 93 92 90 89 92 94 96 98 98 96 98 95 91 87 83 80 77 74 71 67 63 59 56 55 55 55 57 57 55
41 41 43 46 49 53 55 56 51 50 53 59 67 72 78 83 86 89 88 85 83 85 88 89 89 87 86 85 85 84 83 87 90 93 95 96 95 92 88 84 80 78 75 72 70 68 63 61 60 60 61 61 60 59
40 40 44 45 45 47 46 42 43 48 56 58 62 65 69 72 76 79 85 90 91 87 82 79 76 78 78 78 78 77 77 78 80 81 84 86 87 89 89 87 83 80 78 75 71 69 68 67 67 67 67 66 66 66
44 47 46 45 41 43 46 46 52 50 58 61 64 65 67 68 72 72 74 75 73 71 71 71 72 73 72 71 70 70 71 72 71 72 74 77 78 79 79 77 75 72 70 70 70 69 70 70 71 72 72 75 74 76

GFSWCAN_prec_cthk_210.txt.gz
RH
28 33 38 48 54 73 90 97 98 98 94 95 75 67 72 83 90 92 82 80 92 97 98 93 98 80 95 95 96 97 95 98 95 97 96 96 89 88 77 82 88 89 92 92 92 95 87 61 57 56 54 54 47 42
24 26 30 38 49 57 77 93 97 98 99 97 92 86 81 85 91 96 92 89 96 95 96 96 97 98 77 90 92 94 84 77 90 94 91 89 89 76 77 86 80 89 81 83 82 80 71 63 58 56 54 49 44 40
26 23 23 28 36 49 59 75 89 93 98 98 99 90 94 96 98 98 96 95 98 96 95 96 98 99 95 91 83 89 87 82 89 84 85 86 85 80 80 78 86 87 84 85 81 72 66 65 61 57 49 45 41 38
30 27 23 22 26 35 47 59 71 84 95 97 97 94 93 96 94 93 97 96 96 96 91 93 98 98 98 94 76 67 79 86 91 90 93 88 85 89 93 91 92 86 83 77 72 66 61 57 53 50 49 42 36 34
35 34 29 24 21 25 32 44 54 68 81 93 96 98 98 91 97 94 98 98 99 98 95 96 94 98 98 98 90 90 94 97 94 93 89 92 88 85 83 78 77 78 74 72 68 59 48 47 46 45 38 32 29 26
33 35 35 31 25 22 25 31 43 49 66 80 91 96 97 95 98 99 98 98 98 95 96 96 98 98 98 98 97 95 90 87 77 81 84 84 81 79 77 70 67 64 62 52 45 46 41 40 35 28 23 23 25 25
34 33 36 37 31 26 26 27 31 40 45 61 78 86 90 92 88 95 97 97 97 96 95 96 97 97 94 91 88 88 85 84 78 76 82 76 70 67 60 52 50 46 44 43 39 33 29 25 27 28 28 30 36 44
37 32 32 36 35 28 32 28 27 30 37 42 56 73 80 86 95 94 93 91 92 91 94 95 97 97 91 90 85 80 80 77 74 73 73 67 60 54 49 42 37 36 32 30 27 24 28 30 35 41 44 46 49 51
37 36 26 29 38 34 37 37 31 27 24 33 42 50 61 66 70 76 77 73 73 75 95 94 94 96 87 82 77 69 65 67 63 64 57 51 48 45 39 34 29 29 31 29 29 30 34 42 46 47 50 51 51 51
35 35 31 27 32 37 42 40 35 31 23 22 27 37 49 54 58 64 65 69 63 70 85 95 91 92 82 70 67 61 58 55 59 55 43 43 40 38 37 40 39 38 36 36 40 44 48 51 51 52 52 51 50 49
36 35 33 29 31 35 42 43 39 35 28 23 26 32 33 35 42 46 58 64 54 58 70 79 67 62 65 59 61 60 60 55 53 44 44 42 40 38 41 39 45 43 44 48 52 55 54 54 52 52 52 48 46 48
40 40 38 33 31 33 40 44 43 40 39 30 32 35 36 40 38 42 48 48 50 61 64 60 57 50 47 48 51 53 52 51 49 40 49 47 46 48 52 55 55 55 57 56 56 55 56 59 58 54 48 45 46 48
44 45 45 43 33 35 39 41 46 44 41 42 45 43 44 46 47 41 50 50 52 44 40 37 40 40 42 46 50 52 53 56 56 62 57 55 57 64 71 74 70 67 64 66 66 64 63 59 53 47 45 45 45 47
38 41 46 51 52 41 40 40 41 44 47 50 51 51 53 58 54 51 49 44 47 43 48 50 55 56 59 60 58 61 63 61 62 64 54 61 68 73 79 79 82 80 77 76 71 67 63 58 51 46 46 46 45 45
28 33 38 45 51 52 46 41 39 41 46 52 52 60 63 66 63 61 59 55 57 59 59 59 63 64 64 65 61 61 67 62 56 51 54 59 67 75 82 85 85 87 82 77 71 64 58 56 53 51 47 45 45 46
24 25 30 33 43 50 50 41 38 40 42 53 56 62 66 66 67 70 69 70 70 69 69 68 67 67 64 60 58 58 55 58 59 57 59 61 70 75 81 82 79 73 74 70 64 61 57 53 51 48 47 48 49 50
28 27 24 23 28 39 47 49 39 42 46 50 60 68 71 74 72 71 74 71 68 69 69 64 63 62 62 61 59 59 63 62 59 66 69 72 76 77 78 77 73 70 68 64 60 57 54 51 51 53 54 55 55 56
31 29 25 22 21 26 40 49 52 43 48 56 59 67 75 77 79 79 75 74 76 73 70 69 63 63 64 61 64 66 66 67 71 77 82 80 77 75 76 77 75 70 66 62 59 60 59 58 60 61 64 67 67 67
32 27 24 23 23 26 38 48 56 61 55 58 64 67 71 79 83 82 79 81 80 79 77 73 70 66 66 65 70 70 71 73 77 79 80 79 79 80 78 73 72 67 64 62 62 63 62 65 69 73 76 78 80 79
34 25 23 26 26 32 43 51 53 62 68 67 62 69 72 76 82 84 85 84 82 81 78 75 76 75 72 69 68 71 74 77 80 83 82 80 77 77 75 72 71 68 67 64 63 63 64 69 72 77 82 85 88 88
33 25 26 30 34 34 41 49 55 61 67 75 83 80 79 82 84 86 85 89 92 88 83 85 88 82 75 75 75 74 71 71 73 78 81 81 79 75 72 73 72 70 67 66 64 65 67 70 70 72 75 79 84 87
41 32 34 35 37 38 40 42 49 54 55 58 66 81 88 86 82 83 88 90 92 91 91 91 90 90 86 84 84 82 82 82 81 79 77 76 76 76 78 78 75 73 72 69 66 63 61 60 58 58 58 62 68 76
46 40 40 41 43 44 48 49 57 61 61 66 69 68 72 84 89 91 96 96 94 90 90 92 90 91 91 88 87 84 82 83 83 82 80 80 78 79 79 75 74 76 76 71 66 61 56 53 51 48 47 49 54 60
50 51 50 47 43 45 47 53 60 69 72 80 83 83 83 88 93 96 97 98 98 96 93 93 94 95 94 91 89 86 87 90 89 88 87 86 85 85 78 74 76 80 80 72 62 54 51 48 46 43 41 42 46 49
55 57 56 51 48 48 51 53 57 63 72 76 82 86 94 97 97 97 93 93 97 96 95 96 95 95 95 95 94 92 94 96 94 93 92 94 94 93 85 82 82 86 85 74 63 57 55 51 44 39 37 38 41 45
58 60 57 50 50 50 52 53 54 57 59 63 73 79 89 94 94 96 97 98 97 97 98 96 96 98 98 98 98 97 98 98 98 97 96 97 97 98 92 82 83 89 89 84 72 65 63 59 48 45 41 38 36 36
62 61 57 47 45 45 47 44 43 44 48 55 55 59 63 76 85 93 98 99 99 98 99 96 95 97 99 98 97 98 98 98 98 98 98 98 98 98 96 87 86 93 97 94 87 79 70 67 64 60 56 50 44 40
64 61 58 47 38 36 38 41 45 50 54 56 58 64 68 70 73 80 89 94 96 96 96 96 97 97 97 97 99 99 99 98 98 98 98 98 98 98 98 98 98 98 98 98 97 91 89 80 73 68 64 60 54 50
62 57 46 41 40 42 44 46 48 53 53 56 59 62 68 73 75 79 82 85 87 89 91 93 96 98 98 98 98 98 99 99 99 99 99 99 99 98 98 99 99 98 97 95 92 87 83 78 74 69 66 65 63 61
57 53 47 43 41 43 45 46 49 50 48 48 49 54 56 59 62 67 74 80 83 86 88 88 88 89 89 89 90 91 94 96 98 99 99 99 99 98 98 99 98 98 97 96 95 93 88 80 76 75 72 69 69 68
59 56 49 44 43 45 45 41 37 37 39 45 48 52 54 56 55 57 61 65 69 72 78 79 80 81 83 82 82 81 84 83 83 84 86 88 89 92 94 96 97 97 97 96 95 93 91 90 89 85 82 79 77 75
60 56 50 44 43 42 39 38 36 38 45 50 52 54 57 60 60 58 60 60 60 62 62 62 63 68 67 70 72 71 69 70 70 72 74 75 76 78 80 81 81 81 81 80 79 81 82 83 84 83 81 80 78 76
63 60 55 46 42 41 42 37 35 39 46 52 54 55 57 60 62 64 63 66 68 68 65 63 60 56 54 51 50 50 50 55 59 62 64 64 63 63 65 69 70 71 72 73 74 75 77 76 77 79 79 79 78 78

GFSWCAN_prec_cthk_216.txt.gz
RH
37 33 28 33 31 30 33 30 52 66 78 93 82 71 83 96 97 98 96 91 93 95 96 98 96 98 97 93 98 92 89 79 87 99 98 98 98 88 82 76 82 78 86 90 89 92 83 48 56 59 53 47 47 48
35 36 30 33 32 31 34 31 40 63 72 93 94 80 69 74 81 83 90 89 96 98 96 92 91 84 82 89 97 96 98 88 79 98 98 99 98 97 80 90 79 87 70 67 60 57 52 49 57 56 54 48 48 50
29 33 32 27 28 31 32 34 35 56 68 90 96 91 72 71 73 72 81 98 98 97 89 88 85 80 73 83 88 90 88 96 94 79 99 98 98 92 95 81 76 72 69 72 67 62 49 53 60 58 51 49 47 47
33 29 31 29 22 29 31 33 33 50 65 89 96 94 84 80 82 82 84 87 91 97 97 89 77 77 80 80 85 83 86 92 98 89 97 98 98 91 90 78 75 69 74 77 75 65 59 57 59 58 57 54 54 56
37 34 32 31 25 27 32 36 34 44 59 86 96 97 91 94 94 93 92 88 88 99 98 94 83 80 86 92 87 82 90 90 99 92 97 97 95 91 85 86 87 75 76 78 75 65 61 62 60 60 57 55 57 54
32 31 30 31 28 26 31 37 36 40 54 78 93 98 92 93 93 98 93 82 81 91 94 91 83 86 93 94 88 91 98 96 91 96 93 94 96 96 93 89 80 71 76 71 70 67 63 61 63 61 60 60 57 52
40 35 33 33 29 26 30 37 37 36 49 74 98 98 98 99 96 98 91 88 92 96 97 96 97 95 98 98 98 98 99 98 97 98 95 97 90 93 94 89 76 79 70 70 67 70 67 66 60 62 59 58 52 47
37 39 37 34 32 26 29 36 39 37 39 67 90 92 95 94 96 96 98 98 98 98 98 97 94 96 97 98 98 97 97 93 98 98 96 94 94 91 89 76 74 70 68 67 64 63 67 70 65 62 59 53 46 46
33 35 40 41 38 28 28 33 38 41 28 51 67 78 93 94 92 95 95 97 98 97 97 97 96 94 95 96 97 96 91 97 96 97 93 88 79 84 67 73 75 68 63 70 74 71 72 67 61 56 49 44 48 51
30 30 34 39 43 36 29 34 37 42 28 40 57 81 84 87 79 78 88 87 93 96 95 95 91 95 97 92 96 94 95 97 95 91 80 82 69 64 61 69 69 68 70 72 69 65 61 55 54 52 50 54 57 58
29 27 27 30 38 45 35 35 37 41 39 57 67 74 73 74 82 91 86 88 85 91 88 90 88 91 88 92 94 95 94 88 92 87 87 80 78 64 59 62 63 62 64 62 55 46 42 47 54 56 60 58 52 46
28 24 24 25 32 44 39 37 38 41 36 33 35 45 59 72 81 83 72 73 75 77 91 91 93 92 91 91 89 86 86 95 93 83 84 84 83 72 63 60 59 56 55 51 50 55 56 61 60 60 57 51 45 38
28 20 23 24 25 32 37 37 35 37 42 58 61 53 50 59 64 62 77 62 69 78 84 92 96 91 88 84 85 82 89 89 76 87 81 92 83 80 78 73 68 72 69 67 67 76 69 61 58 55 48 42 35 30
27 18 21 23 24 20 32 34 33 38 52 62 66 62 58 78 54 57 72 88 67 58 79 87 86 87 83 81 80 76 70 74 83 75 80 92 87 77 75 75 78 77 78 81 74 63 62 57 53 48 40 34 34 36
25 21 23 24 20 16 23 32 36 43 53 57 58 66 59 56 53 52 58 50 49 55 63 69 71 68 69 67 65 62 69 68 67 69 79 79 67 59 64 70 70 71 71 65 62 64 63 58 52 47 41 40 40 36
30 31 31 23 16 14 18 33 41 42 44 53 58 60 66 81 68 66 70 63 63 57 52 53 59 57 56 55 57 57 53 54 52 73 77 70 56 48 48 51 54 63 64 63 62 62 62 59 58 53 48 41 41 37
37 46 30 19 13 15 23 37 38 38 49 51 57 64 88 89 78 63 66 65 66 78 86 76 76 61 54 59 52 57 70 83 80 69 66 62 57 59 61 67 72 76 80 79 77 75 70 63 57 53 53 49 44 44
42 45 28 14 16 21 26 36 41 42 50 55 71 68 71 86 89 93 75 66 80 90 84 76 62 58 61 55 72 71 72 76 66 56 54 57 63 67 74 82 90 92 90 85 78 73 68 64 62 58 54 52 47 44
39 37 23 21 24 30 34 37 44 50 47 51 58 64 68 75 81 84 78 80 82 88 81 68 65 66 69 76 85 76 70 65 65 65 65 65 68 74 79 81 84 85 82 79 77 76 73 68 64 59 53 48 48 48
37 41 32 32 30 32 42 42 41 49 53 51 54 63 71 77 77 79 79 78 83 85 83 78 82 80 81 83 85 81 76 72 66 65 67 69 72 72 70 70 72 74 75 74 72 69 66 63 58 54 53 53 54 57
48 52 42 39 38 34 40 40 50 45 47 49 51 54 68 72 76 81 83 85 85 95 98 95 92 89 84 83 83 84 82 82 79 75 72 72 72 73 71 71 70 70 68 66 65 66 66 65 62 62 60 59 58 58
50 46 50 45 42 35 41 44 45 44 51 50 46 53 60 74 72 78 87 89 94 95 97 98 98 95 91 87 84 84 85 87 91 89 85 82 80 80 78 75 71 68 66 66 68 68 68 68 63 62 60 56 53 54
44 53 58 55 47 41 41 41 45 51 56 54 59 59 54 57 73 85 98 96 97 96 96 98 98 98 98 96 91 89 89 88 92 92 89 85 82 81 78 76 74 72 70 70 69 68 66 64 61 59 56 51 50 50
43 55 59 59 55 49 42 39 42 53 59 61 68 72 81 81 83 90 95 97 98 97 98 98 97 98 98 97 97 96 95 96 97 97 96 93 90 88 84 80 78 75 72 71 70 69 66 65 64 62 58 54 52 53
53 57 64 60 58 52 44 45 39 41 42 44 51 63 75 74 84 83 87 92 96 97 98 98 98 98 96 95 96 98 97 97 98 98 95 95 94 91 89 87 83 80 76 72 69 66 67 68 67 62 59 53 50 51
58 63 67 62 59 55 49 46 48 50 45 46 55 57 51 60 74 79 75 84 87 92 93 95 96 98 98 98 97 95 95 97 98 98 99 99 97 95 92 93 92 90 85 80 73 71 74 74 72 67 60 50 49 49
68 67 65 58 56 47 44 45 41 40 42 45 56 51 56 61 73 68 67 66 75 86 89 94 98 98 97 95 94 92 93 96 98 98 98 98 99 99 97 99 96 97 96 94 85 80 81 81 81 79 69 58 51 48
71 68 68 63 55 45 39 40 41 44 46 42 48 57 58 63 66 63 64 66 70 71 83 93 96 99 99 97 93 91 92 96 98 98 98 98 98 98 98 99 98 98 98 98 97 88 85 87 89 89 85 73 64 57
73 70 65 59 53 48 45 44 46 46 38 44 47 57 62 57 56 58 56 54 59 66 72 77 90 96 99 99 97 94 92 92 96 97 98 99 98 98 98 99 99 99 98 98 98 96 95 97 98 97 94 91 82 70
73 69 61 55 50 54 52 51 51 44 36 38 40 41 48 53 51 45 49 50 53 54 54 60 67 75 81 87 92 94 91 90 93 94 95 99 99 99 98 99 99 99 98 98 99 99 98 99 99 99 98 96 95 92
69 70 66 61 59 61 55 45 40 35 34 41 41 45 57 56 52 49 52 55 57 59 59 59 59 61 64 67 71 75 81 83 80 82 86 94 97 98 98 99 99 99 99 99 99 99 99 99 99 98 98 98 96 93
76 71 66 63 66 55 50 54 49 45 46 45 48 49 48 52 54 58 50 52 57 61 63 65 67 65 62 55 51 53 57 62 67 72 76 78 82 85 87 89 93 95 96 96 95 96 98 98 99 98 98 98 98 98
76 74 71 69 65 63 55 53 49 45 44 45 50 49 49 52 55 59 54 51 58 62 65 68 68 64 64 66 66 64 65 62 56 51 49 53 60 66 72 77 81 83 85 86 87 88 89 90 91 92 94 97 98 98

GFSWCAN_prec_cthk_219.txt.gz
RH
41 38 29 29 29 23 22 27 28 29 45 64 77 71 80 94 92 98 98 95 92 98 97 92 87 86 88 96 95 91 88 87 90 98 98 95 93 91 98 94 93 92 96 95 97 90 89 53 61 54 39 34 34 39
44 40 35 29 29 26 24 27 30 32 46 64 81 81 64 78 93 93 98 97 98 98 98 93 87 82 81 83 83 85 96 86 98 96 97 95 95 87 88 88 88 97 85 86 75 56 46 45 50 54 45 42 42 43
48 39 36 29 27 28 26 28 32 34 47 67 81 87 69 64 68 91 94 98 97 96 95 90 84 79 75 75 79 81 86 91 86 82 96 90 98 96 97 96 92 85 78 82 82 66 54 47 45 49 50 49 48 49
53 41 33 28 29 29 26 26 32 37 48 66 81 90 80 64 65 67 72 92 86 88 88 83 76 79 76 71 73 78 77 84 83 90 95 94 90 99 94 92 79 70 83 87 82 68 60 56 54 54 54 57 57 57
51 42 41 36 33 29 27 26 32 38 50 71 90 90 88 77 78 76 73 74 84 82 85 82 76 71 71 71 70 77 77 83 80 89 96 96 95 95 87 93 86 66 89 83 79 62 57 59 57 56 60 62 58 52
46 36 39 37 35 34 27 26 32 39 47 80 95 97 93 88 86 87 88 78 78 77 75 79 78 78 77 75 78 79 80 84 86 87 96 92 98 88 98 94 95 91 86 81 76 70 70 68 62 67 71 68 61 59
43 35 34 34 37 39 32 26 31 40 43 77 89 97 97 97 96 96 88 84 80 85 91 91 91 88 91 92 92 95 94 86 81 83 85 94 98 94 88 85 95 89 90 88 86 82 82 78 77 72 64 61 61 62
42 33 33 30 32 38 36 28 30 40 39 58 80 88 97 90 91 96 98 97 98 98 97 96 93 90 90 94 98 98 98 94 90 94 95 96 91 97 97 75 74 93 92 88 84 77 72 72 66 61 55 52 56 56
41 34 30 28 27 30 39 31 30 38 40 42 72 84 91 91 90 94 97 98 98 99 96 94 96 97 92 97 98 98 98 98 98 97 98 86 92 97 83 76 76 85 94 91 83 78 77 71 66 62 60 62 60 57
40 34 29 25 24 26 39 35 32 36 41 32 65 92 91 84 84 84 94 94 97 96 95 95 93 96 96 97 97 98 97 97 97 97 97 93 73 70 84 80 81 84 86 83 83 83 80 77 72 69 72 70 61 57
40 36 28 23 24 24 35 35 35 35 41 54 75 87 80 82 84 92 94 94 89 92 85 86 88 95 95 96 98 95 96 97 96 95 95 96 82 83 82 78 79 82 80 78 77 81 82 77 73 75 73 65 59 59
40 34 27 22 23 23 26 32 35 38 35 34 40 46 63 81 90 93 79 74 86 86 81 82 87 91 92 90 90 92 95 98 96 92 96 96 81 76 77 72 76 73 73 70 72 71 78 76 69 64 62 61 57 54
36 33 25 22 22 23 19 29 33 37 46 63 74 61 49 70 71 74 89 82 82 72 75 86 93 90 88 88 89 90 96 89 87 95 95 93 83 75 76 72 73 70 67 72 66 62 67 65 60 56 55 55 58 58
36 32 25 23 21 19 16 24 33 39 51 59 67 68 56 78 74 64 68 88 89 78 62 88 91 96 88 90 88 82 80 85 94 96 97 89 84 76 77 75 70 70 70 69 67 68 67 65 63 64 64 57 54 49
36 33 32 26 23 16 13 21 36 40 51 57 57 67 60 57 58 50 54 57 57 56 67 89 90 88 81 85 77 75 85 87 83 91 91 90 86 84 86 86 80 74 72 70 69 68 70 71 66 57 53 52 48 41
35 39 40 30 19 11 15 28 40 38 45 54 55 59 65 89 79 68 74 71 69 66 69 72 76 69 66 68 69 68 68 77 91 88 80 79 76 78 79 85 86 86 82 85 85 87 79 73 64 60 58 54 50 47
42 45 41 28 13 15 21 30 34 37 47 53 57 61 78 94 85 80 89 88 79 72 74 75 77 63 60 70 70 77 92 95 83 80 81 73 61 58 59 63 68 75 80 83 82 79 76 74 75 73 69 62 57 51
46 41 31 23 20 21 25 32 36 42 51 51 63 64 70 74 95 87 73 71 80 95 92 86 75 69 69 74 88 94 92 90 75 66 65 68 63 59 58 59 60 67 73 74 73 74 73 71 68 65 60 57 55 51
47 42 31 33 31 34 33 33 40 52 47 44 49 58 66 70 75 85 86 73 79 95 90 85 86 90 89 99 95 83 74 70 69 64 59 59 63 68 73 75 77 77 78 81 79 75 73 73 72 70 67 64 60 56
52 47 39 42 40 38 43 37 39 43 52 52 50 50 62 70 73 74 77 80 81 86 93 95 92 91 97 93 92 90 81 72 66 66 67 66 65 69 75 81 84 87 87 86 86 85 82 80 77 74 72 68 64 61
58 47 45 45 44 43 43 39 42 40 37 41 43 48 55 64 70 76 82 85 86 92 95 97 98 96 91 90 89 87 84 84 81 75 73 71 71 73 72 73 77 81 84 84 83 83 82 80 77 74 71 67 63 60
60 45 49 50 44 44 48 41 39 42 44 39 37 43 54 60 70 74 90 90 92 95 98 98 98 98 98 96 93 93 91 87 88 87 81 80 81 82 82 80 78 78 77 78 77 77 78 77 75 73 72 69 65 61
53 53 52 59 52 49 48 45 46 48 58 55 57 62 61 67 70 82 88 90 93 95 95 98 98 98 97 95 98 97 97 97 97 95 90 86 86 87 84 80 76 74 73 71 70 72 73 73 74 71 66 62 57 53
58 55 50 56 61 58 50 46 43 48 49 52 54 61 74 72 74 78 84 87 97 98 98 98 98 98 98 98 97 96 96 98 97 97 96 94 89 86 86 83 79 76 76 76 76 76 73 71 68 62 58 55 52 53
67 59 56 57 62 62 55 50 41 41 40 41 42 54 58 59 77 78 81 84 90 93 94 97 98 98 98 97 97 97 98 98 98 98 95 96 93 91 91 91 89 84 81 78 77 74 71 67 65 63 61 58 59 60
67 60 65 62 67 66 59 57 55 48 44 40 46 49 42 48 63 72 73 73 77 82 87 91 93 94 95 96 97 97 98 98 98 98 97 96 97 95 94 92 92 91 89 86 81 76 72 66 66 65 61 58 60 59
68 65 66 63 62 56 57 51 41 41 38 44 48 43 42 59 67 66 66 66 65 64 65 72 82 89 93 93 93 96 96 97 98 98 98 98 96 96 96 97 97 96 93 93 95 91 80 75 74 74 69 65 64 60
70 71 72 68 62 53 52 49 44 45 51 40 42 45 49 56 59 57 55 53 54 57 60 63 68 78 86 92 95 96 98 98 98 97 98 98 98 98 97 96 99 98 98 97 98 98 96 88 84 82 81 78 76 70
74 77 72 68 62 57 54 50 51 46 38 36 46 55 56 53 54 52 48 44 42 47 47 51 61 69 75 89 95 96 98 98 96 96 98 98 98 98 98 98 98 99 98 98 98 99 99 98 95 92 91 91 91 85
81 73 67 60 58 62 63 57 56 48 40 35 36 37 42 47 47 46 43 44 50 53 51 51 53 54 60 68 77 91 93 93 95 96 95 95 97 99 98 98 98 98 99 99 98 98 98 98 98 99 98 99 98 98
77 75 69 64 71 69 64 55 50 40 33 37 34 45 50 50 48 47 45 45 48 52 56 57 59 58 57 56 52 56 66 73 78 82 86 91 93 95 96 98 99 99 98 99 98 98 98 98 99 99 99 99 99 99
80 77 74 74 73 68 59 59 62 57 50 42 44 44 42 42 52 51 50 46 44 52 58 63 63 63 62 54 52 54 52 48 48 53 58 63 68 75 84 86 89 95 96 98 99 99 99 99 99 99 99 99 99 98
80 78 76 75 72 69 61 61 63 59 53 49 53 51 49 50 54 55 55 53 51 56 61 61 63 66 64 59 60 64 66 64 63 61 57 50 46 49 56 62 68 75 82 86 88 90 93 96 97 98 99 99 99 98